Plymouth, NH

5:36 AM EST on January 19, 2018 (GMT -0500)
Plymouth

Weather History for K1P1 - April, 2014

Change the Weather History Date:

Sunday, April 20, 2014

  Actual Average (KLCI) Record (KLCI)
Temperature  
Mean Temperature 42 °F -  
Max Temperature 60 °F 56 °F 80 °F (2005)
Min Temperature 24 °F 34 °F 23 °F (2001)
Degree Days  
Heating Degree Days 23    
Moisture  
Dew Point 19 °F    
Average Humidity 49    
Maximum Humidity 96    
Minimum Humidity 13    
Precipitation  
Precipitation 0.00 in - - ()
Sea Level Pressure  
Sea Level Pressure 30.40 in    
Wind  
Wind Speed 2 mph (SE)    
Max Wind Speed 9 mph    
Max Gust Speed -    
Visibility 10 miles    
Events      
Averages and records for this station are not official NWS values.
T = Trace of Precipitation, MM = Missing Value Source: NWS Daily Summary

Daily Weather History Graph

Daily Weather History Graph

Search for Another Location

Airport or City:

Trip Planner

Search our weather history database for the weather conditions in past years. The results will help you decide how hot, cold, wet, or windy it might be!

Date:

Astronomy

Apr. 20, 2014 Rise Set
Actual Time 5:55 AM EDT 7:36 PM EDT
Civil Twilight 5:25 AM EDT 8:07 PM EDT
Nautical Twilight 4:48 AM EDT 8:44 PM EDT
Astronomical Twilight 4:09 AM EDT 9:24 PM EDT
Moon 12:17 AM EDT (4/20) 10:09 AM EDT (4/20)
Length of Visible Light 14h 41m
Length of Day
13h 40m
Waning Gibbous, 69% of the Moon is Illuminated
Apr 20
Waning Gibbous
Apr 22
Last Quarter
Apr 29
New
May 6
First Quarter
May 14
Full

Hourly Weather History & Observations

Time (EDT) Temp. Windchill Dew Point Humidity Pressure Visibility Wind Dir Wind Speed Gust Speed Precip Events Conditions
12:15 AM 32.2 °F 28.9 °F 26.4 °F 79% 30.43 in 10.0 mi WSW 3.5 mph - N/A   Unknown
12:35 AM 32.4 °F 26.0 °F 27.0 °F 80% 30.43 in 10.0 mi WNW 6.9 mph - N/A   Unknown
12:55 AM 33.3 °F 28.9 °F 25.7 °F 74% 30.42 in 10.0 mi WSW 4.6 mph - N/A   Unknown
1:15 AM 33.8 °F 29.6 °F 25.7 °F 72% 30.43 in 10.0 mi West 4.6 mph - N/A   Unknown
1:35 AM 32.0 °F - 26.2 °F 79% 30.42 in 10.0 mi Calm Calm - N/A   Unknown
1:55 AM 32.0 °F - 25.2 °F 76% 30.42 in 10.0 mi Calm Calm - N/A   Unknown
2:15 AM 32.0 °F - 25.2 °F 76% 30.43 in 10.0 mi Calm Calm - N/A   Unknown
2:35 AM 29.5 °F - 25.2 °F 84% 30.43 in 10.0 mi Calm Calm - N/A   Unknown
2:55 AM 28.9 °F - 25.2 °F 86% 30.43 in 10.0 mi Calm Calm - N/A   Unknown
3:15 AM 27.9 °F - 25.5 °F 91% 30.43 in 10.0 mi Calm Calm - N/A   Unknown
3:35 AM 27.9 °F - 25.3 °F 90% 30.43 in 10.0 mi Calm Calm - N/A   Unknown
4:15 AM 27.0 °F - 24.6 °F 91% 30.43 in 10.0 mi Calm Calm - N/A   Unknown
4:35 AM 26.6 °F - 24.8 °F 93% 30.43 in 10.0 mi Calm Calm - N/A   Unknown
4:55 AM 26.6 °F - 24.8 °F 93% 30.44 in 10.0 mi Calm Calm - N/A   Unknown
5:15 AM 25.9 °F - 24.4 °F 94% 30.45 in 10.0 mi Calm Calm - N/A   Unknown
5:35 AM 25.7 °F - 24.4 °F 95% 30.47 in 10.0 mi Calm Calm - N/A   Unknown
5:55 AM 25.9 °F - 24.6 °F 95% 30.47 in 10.0 mi Calm Calm - N/A   Unknown
6:15 AM 25.0 °F - 24.1 °F 96% 30.48 in 7.0 mi Calm Calm - N/A   Unknown
6:35 AM 24.8 °F - 23.9 °F 96% 30.49 in 10.0 mi Calm Calm - N/A   Unknown
6:55 AM 25.5 °F - 24.6 °F 96% 30.49 in 10.0 mi Calm Calm - N/A   Unknown
7:15 AM 27.3 °F - 26.4 °F 96% 30.50 in 10.0 mi Calm Calm - N/A   Unknown
7:35 AM 28.6 °F - 26.2 °F 91% 30.51 in 10.0 mi Calm Calm - N/A   Unknown
7:55 AM 30.4 °F - 26.2 °F 85% 30.51 in 10.0 mi Calm Calm - N/A   Unknown
8:15 AM 32.0 °F - 25.5 °F 77% 30.50 in 10.0 mi Calm Calm - N/A   Unknown
8:35 AM 33.8 °F - 26.1 °F 73% 30.50 in 10.0 mi Calm Calm - N/A   Unknown
8:55 AM 36.3 °F - 25.2 °F 64% 30.50 in 10.0 mi Calm Calm - N/A   Unknown
9:15 AM 37.9 °F - 24.1 °F 57% 30.50 in 10.0 mi Calm Calm - N/A   Unknown
9:35 AM 40.5 °F - 19.9 °F 44% 30.50 in 10.0 mi Calm Calm - N/A   Unknown
9:55 AM 42.8 °F - 16.9 °F 35% 30.49 in 10.0 mi Calm Calm - N/A   Unknown
10:15 AM 45.1 °F - 18.7 °F 35% 30.48 in 10.0 mi Calm Calm - N/A   Unknown
10:35 AM 46.6 °F - 14.5 °F 28% 30.48 in 10.0 mi Calm Calm - N/A   Unknown
10:55 AM 48.4 °F - 12.7 °F 24% 30.47 in 10.0 mi Calm Calm - N/A   Unknown
11:15 AM 50.2 °F - 14.0 °F 24% 30.46 in 10.0 mi Calm Calm - N/A   Unknown
11:35 AM 50.7 °F - 13.6 °F 23% 30.45 in 10.0 mi SSE 4.6 mph - N/A   Unknown
11:55 AM 51.4 °F - 13.1 °F 22% 30.45 in 10.0 mi Calm Calm - N/A   Unknown
12:15 PM 52.5 °F - 11.1 °F 19% 30.44 in 10.0 mi East 4.6 mph - N/A   Unknown
12:35 PM 53.1 °F - 10.0 °F 18% 30.43 in 10.0 mi East 6.9 mph - N/A   Unknown
1:15 PM 55.2 °F - 9.1 °F 16% 30.41 in 10.0 mi SE 3.5 mph - N/A   Unknown
1:35 PM 56.3 °F - 6.6 °F 14% 30.41 in 10.0 mi ESE 5.8 mph - N/A   Unknown
1:55 PM 56.5 °F - 5.5 °F 13% 30.40 in 10.0 mi ESE 5.8 mph - N/A   Unknown
2:15 PM 57.2 °F - 7.0 °F 13% 30.39 in 10.0 mi South 4.6 mph - N/A   Unknown
2:35 PM 58.1 °F - 10.9 °F 16% 30.39 in 10.0 mi SSE 3.5 mph - N/A   Unknown
2:55 PM 58.3 °F - 11.5 °F 16% 30.38 in 10.0 mi Calm Calm - N/A   Unknown
3:15 PM 58.1 °F - 10.9 °F 16% 30.37 in 10.0 mi ESE 6.9 mph - N/A   Unknown
3:35 PM 59.4 °F - 13.6 °F 17% 30.37 in 10.0 mi ESE 4.6 mph - N/A   Unknown
3:55 PM 59.5 °F - 10.8 °F 15% 30.36 in 10.0 mi SSE 4.6 mph - N/A   Unknown
4:15 PM 60.6 °F - 12.2 °F 15% 30.35 in 10.0 mi South 5.8 mph - N/A   Unknown
4:35 PM 60.3 °F - 9.9 °F 14% 30.34 in 10.0 mi South 5.8 mph - N/A   Unknown
4:55 PM 60.4 °F - 10.0 °F 14% 30.34 in 10.0 mi SE 5.8 mph - N/A   Unknown
5:15 PM 60.8 °F - 9.3 °F 13% 30.33 in 10.0 mi South 3.5 mph - N/A   Unknown
5:35 PM 60.4 °F - 10.2 °F 14% 30.32 in 10.0 mi SE 5.8 mph - N/A   Unknown
5:55 PM 60.8 °F - 12.0 °F 15% 30.32 in 10.0 mi SSE 5.8 mph - N/A   Unknown
6:15 PM 59.9 °F - 11.5 °F 15% 30.32 in 10.0 mi South 5.8 mph - N/A   Unknown
6:35 PM 59.4 °F - 13.3 °F 16% 30.31 in 10.0 mi Calm Calm - N/A   Unknown
6:55 PM 59.0 °F - 12.2 °F 16% 30.31 in 10.0 mi South 6.9 mph - N/A   Unknown
7:15 PM 57.4 °F - 14.0 °F 18% 30.31 in 10.0 mi South 4.6 mph - N/A   Unknown
7:35 PM 55.0 °F - 16.3 °F 22% 30.30 in 10.0 mi Calm Calm - N/A   Unknown
7:55 PM 53.6 °F - 16.7 °F 23% 30.31 in 10.0 mi Calm Calm - N/A   Unknown
8:15 PM 49.6 °F - 22.1 °F 34% 30.31 in 10.0 mi Calm Calm - N/A   Unknown
8:35 PM 49.5 °F - 19.2 °F 30% 30.31 in 10.0 mi East 5.8 mph - N/A   Unknown
8:55 PM 51.1 °F - 19.0 °F 28% 30.32 in 10.0 mi East 4.6 mph - N/A   Unknown
9:15 PM 50.2 °F - 18.7 °F 29% 30.32 in 10.0 mi SE 9.2 mph - N/A   Unknown
9:35 PM 50.4 °F - 19.2 °F 29% 30.32 in 10.0 mi SE 6.9 mph - N/A   Unknown
9:55 PM 42.8 °F 41.1 °F 25.5 °F 51% 30.32 in 10.0 mi East 3.5 mph - N/A   Unknown
10:15 PM 45.7 °F 44.4 °F 21.7 °F 39% 30.32 in 10.0 mi East 3.5 mph - N/A   Unknown
10:35 PM 44.2 °F 41.0 °F 23.4 °F 44% 30.32 in 10.0 mi ENE 5.8 mph - N/A   Unknown
10:55 PM 42.4 °F 38.1 °F 24.8 °F 50% 30.32 in 10.0 mi East 6.9 mph - N/A   Unknown
11:15 PM 39.2 °F 37.0 °F 27.7 °F 63% 30.32 in 10.0 mi East 3.5 mph - N/A   Unknown
11:35 PM 35.6 °F - 27.3 °F 72% 30.31 in 10.0 mi Calm Calm - N/A   Unknown
11:55 PM 34.7 °F - 27.3 °F 74% 30.30 in 10.0 mi Calm Calm - N/A   Unknown